カタログに戻る

OPS 0856 DEB

LostPO
NORAD 25931·DEBRIS·🇺🇸 United States

打ち上げ Aug 19, 1966 から Vandenberg Space Force Base

Loading…

次のパス (今後24時間)

TLE

古いSource: Space-Track

元期: Jul 2, 2024, 12:07 UTC

1 25931U 66077X   24184.50490472  .00001073  00000-0  26860-1 0  9990
2 25931  87.5937   6.9478 2262964 275.6655  82.0415  8.82233511795332

AllMySatでOPS 0856 DEBをリアルタイム追跡

Download on the App Store